Location: Unspecified
(0.0000°N, 0.0000°E)
Time: 19:01:51
(UTC+02:00)

ARIANE 5 R/B - Visible Passes

Search period start: 26 April 2018 00:00
Search period end: 06 May 2018 00:00
Orbit: 572 x 35644 km, 6.9° (Epoch: 25 April)

Date Brightness Start Highest point End Pass type
(mag) Time Alt. Az. Time Alt. Az. Time Alt. Az.
26 Apr 9.8 18:19:59 10° E 21:27:15 26° E 21:45:50 26° E visible
27 Apr 8.4 21:44:15 10° W 23:27:53 50° W 07:35:23 10° ENE visible
28 Apr 8.2 18:36:24 10° W 22:34:21 83° S 04:38:10 10° E visible
29 Apr 7.5 15:38:08 10° WNW 23:46:33 65° ESE 01:34:44 10° E visible
30 Apr 10.7 18:47:22 10° E 20:46:16 18° E 21:16:26 17° E visible
01 May 11.0 01:01:56 10° W 01:44:34 12° W 02:42:07 10° W visible
01 May 8.1 20:59:19 10° W 22:44:57 59° WSW 06:54:06 10° E visible
02 May 8.3 17:54:22 10° W 23:02:13 82° S 03:56:17 10° E visible
03 May 7.1 14:56:48 10° WNW 23:03:46 56° ESE 00:50:28 10° E visible
04 May 10.6 19:46:38 10° E 20:05:41 10° E 20:22:47 10° E visible
04 May 10.9 23:49:32 10° W 01:03:49 20° W 03:21:53 10° W visible
